Regional Weather Roundup
Issued by NWS

Home | Current Version | Previous Version | Graphics & Text | Print | Product List | Glossary On
Versions: 1 2 3 4 5 6 7 8 9 10 11 12 13 14 15 16 17 18 19 20 21 22 23 24 25 26 27 28 29 30 31 32 33 34 35 36 37 38 39 40 41 42 43 44 45 46 47 48 49 50
000
ASUS43 KLSX 050559
RWRMO

WEATHER SUMMARY FOR MISSOURI
NATIONAL WEATHER SERVICE SPRINGFIELD MO
1200 AM CST THU MAR 05 2015

NOTE: "FAIR" INDICATES FEW OR NO CLOUDS BELOW 12,000 FEET WITH NO
       SIGNIFICANT WEATHER AND/OR OBSTRUCTIONS TO VISIBILITY.
       CURRENT SKY AND/OR WEATHER CONDITIONS ARE NOT AVAILABLE FOR
       CHILLICOTHE AND FARMINGTON.

MOZ001>031-035>038-043-044-053-054-050700-
...NORTHERN AND WESTERN MISSOURI...

CITY           SKY/WX    TMP DP  RH WIND       PRES   REMARKS
KANSAS CTY INT CLEAR     18   4  54 N10       30.42R WCI   6
6HR MIN TEMP:  18; 6HR MAX TEMP:  28;

KANSAS C DTWN  PTCLDY    24   3  40 N9        30.43S WCI  14
6HR MIN TEMP:  24; 6HR MAX TEMP:  29;

LEE`S SUMMIT   PTCLDY    23   4  44 N10       30.41S WCI  12
6HR MIN TEMP:  22; 6HR MAX TEMP:  27;

ST JOSEPH      CLEAR     14   3  61 N8        30.46F WCI   3
6HR MIN TEMP:  13; 6HR MAX TEMP:  29;

CHILLICOTHE      N/A     18   3  52 N6        30.44F WCI  10
6HR MIN TEMP:  18; 6HR MAX TEMP:  29;


$$
MOZ066>068-077>081-088>096-101>105-050700-
...SOUTHWEST MISSOURI...

CITY           SKY/WX    TMP DP  RH WIND       PRES   REMARKS
SPRINGFIELD    MOCLDY    22  10  60 N8        30.33F WCI  12
6HR MIN TEMP:  22; 6HR MAX TEMP:  23; 6HR PCP: TRACE;

JOPLIN         CLOUDY    23  11  60 N6        30.40R WCI  16
6HR MIN TEMP:  23; 6HR MAX TEMP:  25;


$$
MOZ032>034-039>042-045>050-055>058-069>072-050700-
...CENTRAL MISSOURI...

CITY           SKY/WX    TMP DP  RH WIND       PRES   REMARKS
COLUMBIA       PTCLDY    19   7  59 NW5       30.37F WCI  12
6HR MIN TEMP:  18; 6HR MAX TEMP:  23;

JEFFERSON CITY FAIR      21   8  57 NW3       30.39F
6HR MIN TEMP:  21; 6HR MAX TEMP:  25;

ROLLA          PTCLDY    20   7  57 N5        30.32F WCI  13
6HR MIN TEMP:  20; 6HR MAX TEMP:  21;

SEDALIA        CLEAR     20   9  62 W5        30.40S WCI  13
6HR MIN TEMP:  20; 6HR MAX TEMP:  25;

OSAGE BEACH    MOCLDY    19  10  68 CALM      30.37F

$$
MOZ051-052-059>065-050700-
...EAST CENTRAL MISSOURI...

CITY           SKY/WX    TMP DP  RH WIND       PRES   REMARKS
ST LOUIS INTL  MOCLDY    22   4  46 N5        30.38F WCI  16
6HR MIN TEMP:  22; 6HR MAX TEMP:  24;

SPIRIT OF STL  MOCLDY    22   2  42 N6        30.38F WCI  14
6HR MIN TEMP:  22; 6HR MAX TEMP:  23;

ST CHARLES     MOCLDY    20   4  50 N6        30.39F WCI  12
6HR MIN TEMP:  20; 6HR MAX TEMP:  23;


$$
MOZ072>076-082>087-097>100-106>115-050700-
...SOUTH CENTRAL AND SOUTHEAST MISSOURI...

CITY           SKY/WX    TMP DP  RH WIND       PRES   REMARKS
CAPE GIRARDEAU CLOUDY    21  12  68 N12       30.33F WCI   9
6HR MIN TEMP:  19; 6HR MAX TEMP:  21;

FARMINGTON     CLOUDY    19   7  58 N6        30.34F WCI  11
6HR MIN TEMP:  19; 6HR MAX TEMP:  21;

POPLAR BLUFF   CLOUDY    21  12  68 N8        30.33S WCI  11
6HR MIN TEMP:  20; 6HR MAX TEMP:  22;

WEST PLAINS    CLOUDY    20   6  55 N10       30.31R WCI   9
6HR MIN TEMP:  19; 6HR MAX TEMP:  20; 6HR PCP:  0.02;


$$


USA.gov is the U.S. government's official web portal to all federal, state and local government web resources and services.